DW4248 Weather Reports


Display with metric or nautical units.
time (UTC)temp
F
wind
direction
speed
MPH
gust
MPH
rain 1hr
in
rain 24hr
in
rain mn
in
humidity
%
barometer
mb
20260509164503 72 315 2.0 7.0 0.00 0.25 0.00 62 1009.4
20260509163603 71 277 1.0 7.0 0.00 0.25 0.00 62 1009.5
20260509162703 70 151 1.0 6.0 0.00 0.25 0.00 67 1009.5
20260509161803 70 148 1.0 4.0 0.00 0.25 0.00 71 1009.4
20260509160903 69 329 1.0 5.0 0.00 0.25 0.00 71 1009.4
20260509160003 68 145 1.0 7.0 0.00 0.25 0.00 75 1009.4
20260509155403 68 214 1.0 6.0 0.00 0.25 0.00 75 1009.4
20260509154503 67 260 1.0 4.0 0.00 0.25 0.00 77 1009.3
20260509153603 66 197 0.0 3.0 0.00 0.25 0.00 80 1009.3
20260509152703 65 150 1.0 3.0 0.00 0.25 0.00 83 1009.4
20260509151803 64 3 1.0 6.0 0.00 0.25 0.00 82 1009.4
20260509150903 64 160 1.0 4.0 0.00 0.25 0.00 85 1009.3
20260509150024 63 164 1.0 5.0 0.00 0.25 0.00 86 1009.3
20260509145424 63 206 1.0 6.0 0.00 0.25 0.00 86 1009.3
20260509144524 62 348 1.0 6.0 0.00 0.25 0.00 87 1009.3
20260509143603 62 175 1.0 4.0 0.00 0.25 0.00 89 1009.2
20260509142703 61 173 1.0 4.0 0.00 0.25 0.00 90 1009.2
20260509141803 60 334 2.0 6.0 0.00 0.25 0.00 90 1009.2
20260509140924 60 232 1.0 5.0 0.00 0.25 0.00 91 1009.1
20260509140025 60 131 0.0 3.0 0.00 0.25 0.00 91 1009.0
20260509135403 60 149 0.0 2.0 0.00 0.25 0.00 91 1009.0
20260509134503 59 291 0.0 3.0 0.00 0.25 0.00 92 1009.1
20260509133603 59 158 0.0 4.0 0.00 0.25 0.00 93 1008.9
20260509132703 58 129 1.0 4.0 0.00 0.25 0.00 93 1009.0
20260509131803 58 175 1.0 3.0 0.00 0.25 0.00 93 1009.0
20260509130903 58 240 1.0 4.0 0.00 0.25 0.00 93 1009.1
20260509130003 58 264 0.0 2.0 0.00 0.25 0.00 94 1009.0
20260509125403 58 271 0.0 3.0 0.00 0.25 0.00 94 1009.1
20260509124503 58 208 1.0 5.0 0.00 0.25 0.00 94 1009.1
20260509123603 58 178 1.0 3.0 0.00 0.25 0.00 94 1009.1
20260509122703 58 179 0.0 1.0 0.00 0.25 0.00 95 1009.0
20260509121803 58 242 0.0 1.0 0.00 0.25 0.00 95 1009.1
20260509120903 57 322 0.0 3.0 0.00 0.25 0.00 95 1008.9
20260509120003 57 6 0.0 2.0 0.00 0.25 0.00 95 1008.7
20260509115403 57 345 0.0 3.0 0.00 0.25 0.00 95 1008.7
20260509114503 57 308 0.0 4.0 0.00 0.25 0.00 95 1008.8
20260509113603 57 340 0.0 2.0 0.00 0.25 0.00 95 1008.7
20260509112703 57 277 0.0 3.0 0.00 0.25 0.00 95 1008.6
20260509111824 57 190 0.0 3.0 0.00 0.25 0.00 95 1008.6
20260509110903 57 238 0.0 2.0 0.00 0.25 0.00 95 1008.7
20260509110003 57 188 0.0 3.0 0.00 0.25 0.00 95 1008.6
20260509105403 57 184 0.0 3.0 0.00 0.25 0.00 95 1008.6
20260509104503 57 203 0.0 3.0 0.00 0.25 0.00 95 1008.6
20260509103603 57 318 1.0 4.0 0.00 0.25 0.00 95 1008.6
20260509102703 57 314 1.0 8.0 0.00 0.25 0.00 95 1008.4
20260509101803 57 333 1.0 6.0 0.00 0.25 0.00 95 1008.4
20260509100903 57 197 1.0 3.0 0.00 0.25 0.00 95 1008.2
20260509100004 57 174 1.0 4.0 0.00 0.25 0.00 95 1008.2
20260509095403 57 170 0.0 2.0 0.00 0.25 0.00 95 1008.2
20260509094524 57 264 0.0 1.0 0.00 0.25 0.00 95 1008.0
20260509093603 57 151 0.0 2.0 0.00 0.25 0.00 95 1008.0
20260509092703 57 180 0.0 4.0 0.00 0.25 0.00 95 1008.1
20260509091824 57 231 0.0 2.0 0.00 0.25 0.00 95 1008.0
20260509090903 57 236 0.0 2.0 0.00 0.25 0.00 95 1007.9
20260509090004 57 135 0.0 1.0 0.00 0.25 0.00 95 1007.9
20260509085403 57 0 0.0 1.0 0.00 0.25 0.00 95 1007.9
20260509084503 57 252 0.0 3.0 0.00 0.25 0.00 95 1007.8
20260509083603 57 172 0.0 4.0 0.00 0.25 0.00 95 1008.0
20260509082703 57 203 0.0 1.0 0.00 0.25 0.00 95 1008.0
20260509081803 57 152 0.0 6.0 0.00 0.25 0.00 95 1008.1
20260509080903 57 260 0.0 3.0 0.00 0.25 0.00 95 1008.0
20260509080004 57 232 0.0 2.0 0.00 0.25 0.00 95 1008.0
20260509075403 57 0 0.0 1.0 0.00 0.25 0.00 95 1008.0
20260509074524 57 0 0.0 0.0 0.00 0.25 0.00 95 1007.8
20260509073603 57 0 0.0 0.0 0.00 0.25 0.00 95 1007.9
20260509072703 57 0 0.0 1.0 0.00 0.25 0.00 95 1007.9
20260509071824 57 0 0.0 0.0 0.00 0.25 0.00 95 1008.0
20260509070903 57 0 0.0 1.0 0.00 0.25 0.00 95 1008.0
20260509070003 57 0 0.0 0.0 0.00 0.25 0.00 95 1007.9
20260509065403 57 0 0.0 0.0 0.00 0.25 0.00 95 1007.9
20260509064503 57 0 0.0 0.0 0.00 0.25 0.00 95 1007.9
20260509063603 57 0 0.0 0.0 0.00 0.25 0.00 95 1008.0
20260509062703 57 0 0.0 0.0 0.00 0.25 0.00 95 1007.9
20260509061824 57 0 0.0 0.0 0.00 0.25 0.00 95 1007.9
20260509060903 57 123 0.0 1.0 0.00 0.25 0.00 95 1008.0
20260509060004 57 130 0.0 1.0 0.00 0.25 0.00 95 1007.7
20260509055403 57 128 0.0 2.0 0.00 0.25 0.00 95 1007.9
20260509054524 57 130 0.0 2.0 0.00 0.25 0.00 95 1008.0
20260509053603 57 0 0.0 0.0 0.00 0.25 0.00 95 1008.1
20260509052703 58 0 0.0 0.0 0.00 0.25 0.00 95 1008.2
20260509051803 58 0 0.0 0.0 0.00 0.25 0.00 95 1008.0
20260509050903 58 134 0.0 1.0 0.00 0.25 0.00 94 1007.9
20260509050004 58 133 0.0 1.0 0.00 0.25 0.00 94 1008.0
20260509045403 58 0 0.0 1.0 0.00 0.25 0.25 94 1007.9
20260509044503 58 132 0.0 1.0 0.00 0.25 0.25 94 1008.2
20260509043603 58 0 0.0 0.0 0.01 0.25 0.25 94 1008.3
20260509042724 58 0 0.0 0.0 0.02 0.25 0.25 94 1008.3
20260509041805 58 0 0.0 0.0 0.03 0.25 0.25 94 1008.3
20260509040903 58 0 0.0 1.0 0.04 0.25 0.25 94 1008.4
20260509040004 58 0 0.0 1.0 0.06 0.25 0.25 94 1008.5
20260509035403 58 136 0.0 5.0 0.08 0.25 0.25 94 1008.4
20260509034503 58 133 0.0 2.0 0.11 0.25 0.25 94 1008.6
20260509033603 58 0 0.0 0.0 0.15 0.24 0.24 94 1009.0
20260509032703 58 0 0.0 0.0 0.17 0.23 0.23 93 1009.1
20260509031803 58 0 0.0 0.0 0.18 0.22 0.22 93 1009.2
20260509030903 58 0 0.0 0.0 0.18 0.21 0.21 93 1009.1
20260509030003 59 0 0.0 0.0 0.17 0.19 0.19 93 1009.1
20260509025403 59 333 0.0 2.0 0.15 0.17 0.17 93 1009.2
20260509024524 59 316 0.0 4.0 0.12 0.14 0.14 92 1009.3
20260509023603 59 329 1.0 8.0 0.07 0.09 0.09 92 1009.5
20260509022703 60 331 1.0 8.0 0.04 0.06 0.06 91 1009.3
20260509021803 60 322 0.0 4.0 0.02 0.04 0.04 91 1009.4
20260509020903 60 333 0.0 2.0 0.01 0.03 0.03 91 1009.2
20260509020003 60 0 0.0 0.0 0.00 0.02 0.02 91 1009.1
20260509015424 60 0 0.0 0.0 0.00 0.02 0.02 91 1008.8
20260509014503 60 0 0.0 0.0 0.01 0.02 0.02 91 1008.5
20260509013603 60 0 0.0 0.0 0.01 0.02 0.02 90 1008.3
20260509012703 60 0 0.0 0.0 0.01 0.02 0.02 89 1008.3
20260509011803 60 0 0.0 0.0 0.02 0.02 0.02 88 1007.9
20260509010903 61 0 0.0 0.0 0.02 0.02 0.02 88 1007.7
20260509010004 61 322 0.0 1.0 0.02 0.02 0.02 87 1007.9
20260509005403 61 326 0.0 6.0 0.02 0.02 0.02 86 1008.1
20260509004503 62 327 0.0 5.0 0.01 0.01 0.01 85 1008.0
20260509003624 62 322 1.0 3.0 0.01 0.01 0.01 83 1008.0
20260509002704 64 320 1.0 5.0 0.01 0.01 0.01 78 1008.3
20260509001803 65 326 0.0 4.0 0.00 0.00 0.00 73 1008.4
20260509000924 67 321 0.0 5.0 0.00 0.00 0.00 69 1008.2
20260509000004 67 326 1.0 4.0 0.00 0.00 0.00 67 1007.9
20260508235403 68 330 0.0 3.0 0.00 0.00 0.00 66 1007.9
20260508234503 68 328 0.0 5.0 0.00 0.00 0.00 65 1008.0
20260508233603 68 325 1.0 4.0 0.00 0.00 0.00 63 1007.8
20260508232703 69 322 1.0 4.0 0.00 0.00 0.00 63 1007.9
20260508231803 70 328 1.0 3.0 0.00 0.00 0.00 62 1008.1
20260508230903 70 326 0.0 5.0 0.00 0.00 0.00 61 1007.9
20260508230003 70 329 0.0 3.0 0.00 0.00 0.00 60 1008.0
20260508225403 71 326 0.0 2.0 0.00 0.00 0.00 59 1008.0
20260508224503 71 329 1.0 4.0 0.00 0.00 0.00 59 1008.0
20260508223603 72 324 1.0 4.0 0.00 0.00 0.00 56 1007.8
20260508222703 72 328 2.0 6.0 0.00 0.00 0.00 53 1007.9
20260508221803 72 328 1.0 8.0 0.00 0.00 0.00 54 1007.9
20260508220903 73 322 2.0 7.0 0.00 0.00 0.00 53 1008.0
20260508220003 73 327 2.0 9.0 0.00 0.00 0.00 51 1008.0
20260508215403 73 327 1.0 9.0 0.00 0.00 0.00 50 1008.1
20260508214503 73 327 1.0 6.0 0.00 0.00 0.00 51 1008.1
20260508213603 74 332 2.0 9.0 0.00 0.00 0.00 50 1008.2
20260508212703 74 332 2.0 8.0 0.00 0.00 0.00 50 1008.4
20260508211824 74 341 2.0 9.0 0.00 0.00 0.00 50 1008.5
20260508210903 74 336 2.0 9.0 0.00 0.00 0.00 50 1008.7
20260508210003 73 339 1.0 8.0 0.00 0.00 0.00 51 1008.7
20260508205403 74 331 2.0 10.0 0.00 0.00 0.00 50 1008.8
20260508204503 74 339 2.0 11.0 0.00 0.00 0.00 50 1009.0
20260508203603 74 337 1.0 5.0 0.00 0.00 0.00 52 1009.0
20260508202703 74 137 1.0 6.0 0.00 0.00 0.00 52 1009.1
20260508201803 74 244 0.0 4.0 0.00 0.00 0.00 52 1009.1
20260508200903 74 156 0.0 4.0 0.00 0.00 0.00 54 1009.2
20260508200003 75 145 1.0 6.0 0.00 0.00 0.00 52 1009.3
20260508195403 75 139 1.0 5.0 0.00 0.00 0.00 54 1009.3
20260508194503 74 159 1.0 6.0 0.00 0.00 0.00 55 1009.3
20260508193603 73 323 1.0 10.0 0.00 0.00 0.00 57 1009.4
20260508192703 72 329 1.0 9.0 0.00 0.00 0.00 53 1009.5
20260508191803 72 331 1.0 4.0 0.00 0.00 0.00 56 1009.6
20260508190903 71 335 1.0 4.0 0.00 0.00 0.00 58 1009.6
20260508190003 70 230 0.0 2.0 0.00 0.00 0.00 60 1009.5
20260508185424 69 251 0.0 2.0 0.00 0.00 0.00 63 1009.6
20260508184503 68 141 0.0 1.0 0.00 0.00 0.00 61 1009.8
20260508183624 68 307 0.0 3.0 0.00 0.00 0.00 61 1009.8
20260508182703 68 143 0.0 3.0 0.00 0.00 0.00 61 1009.9
20260508181803 68 158 0.0 4.0 0.00 0.00 0.00 61 1009.8
20260508180903 68 156 0.0 3.0 0.00 0.00 0.00 58 1010.1
20260508180003 68 187 0.0 4.0 0.00 0.00 0.00 58 1010.3
20260508175403 67 321 0.0 3.0 0.00 0.00 0.00 63 1010.4
20260508174503 67 312 0.0 4.0 0.00 0.00 0.00 59 1010.6
20260508173624 67 176 0.0 3.0 0.00 0.00 0.00 59 1010.6
20260508172703 66 23 1.0 5.0 0.00 0.00 0.00 62 1010.7
20260508171824 66 337 0.0 4.0 0.00 0.00 0.00 65 1010.9
20260508170903 66 263 0.0 3.0 0.00 0.00 0.00 61 1011.3
20260508170003 65 276 1.0 5.0 0.00 0.00 0.00 62 1011.5
20260508165424 65 165 1.0 5.0 0.00 0.00 0.00 62 1011.2